404 - Page Not Found

404

Error - Page Not Found


Please check the URL.

Otherwise, click here to be redirected to the homepage.

  • Currently

    Reported at Minneapolis, Minneapolis-St. Paul International Airport, MN
    1:53 PM CST FRI FEB 23 2018
  • 32°F0°C
  • Partly Cloudy
    Partly Cloudy
  • Feels Like:25°F-4°CDew Point:21°F-6°CHumidity:64% Winds:SSW 9 mph 14 kph
    Pressure:30.18 in1022 hPaVisibility:10.00 miles16090.00 meters
Time Weather Temp Dew Point
Humidity Winds Visibility Pressure Precipitation
1 hr 24 hr
Monday, February 19
00:53 00:53 Cloudy With Light Freezing Drizzle Cloudy With Light Freezing Drizzle 21°F-6°C 19°F-7°C 92% ENE 12 mphENE 19 kph 10.0 miles16.1 km 29.88 in1012 hPa 0.00 in0.03 mm --
23:53 23:53 Cloudy With Light Freezing Drizzle Cloudy With Light Freezing Drizzle 20°F-7°C 19°F-7°C 96% NE 12 mphNE 19 kph 7.0 miles11.3 km 29.91 in1013 hPa 0.00 in0.03 mm --
22:53 22:53 Cloudy With Light Freezing Drizzle Cloudy With Light Freezing Drizzle 20°F-7°C 19°F-7°C 96% NNE 14 mphNNE 22 kph 4.0 miles6.4 km 29.91 in1013 hPa 0.00 in0.03 mm --
21:53 21:53 Cloudy With Light Freezing Drizzle Cloudy With Light Freezing Drizzle 20°F-7°C 19°F-7°C 96% NE 12 mphNE 19 kph 5.0 miles8.0 km 29.88 in1012 hPa 0.00 in0.03 mm --
21:26 21:26 Cloudy With Light Freezing Drizzle Cloudy With Light Freezing Drizzle 21°F-6°C 19°F-7°C 92% NNE 14 mphNNE 22 kph 4.0 miles6.4 km 29.88 in1012 hPa 0.00 in0.03 mm --
20:53 20:53 Cloudy With Light Freezing Drizzle Cloudy With Light Freezing Drizzle 21°F-6°C 20°F-7°C 96% NNE 14 mphNNE 22 kph 4.0 miles6.4 km 29.91 in1013 hPa 0.00 in0.03 mm --
20:06 20:06 Cloudy With Light Freezing Drizzle Cloudy With Light Freezing Drizzle 21°F-6°C 20°F-7°C 96% N 14 mphN 22 kph 3.0 miles4.8 km 29.91 in1013 hPa 0.00 in0.03 mm --
19:53 19:53 Cloudy With Light Freezing Drizzle Cloudy With Light Freezing Drizzle 21°F-6°C 20°F-7°C 96% N 15 mphN 24 kph 3.0 miles4.8 km 29.91 in1013 hPa 0.00 in0.03 mm --
18:53 18:53 Cloudy With Light Freezing Drizzle Cloudy With Light Freezing Drizzle 21°F-6°C 20°F-7°C 96% NNE 14 mphNNE 22 kph 3.0 miles4.8 km 29.88 in1012 hPa 0.00 in0.03 mm --
18:42 18:42 Cloudy With Light Freezing Drizzle Cloudy With Light Freezing Drizzle 21°F-6°C 20°F-7°C 96% NNE 15 mphNNE 24 kph 3.0 miles4.8 km 29.91 in1013 hPa 0.00 in0.03 mm --
18:35 18:35 Cloudy With Light Freezing Drizzle Cloudy With Light Freezing Drizzle 22°F-6°C 20°F-7°C 92% NNE 14 mphNNE 22 kph 2.0 miles3.2 km 29.91 in1013 hPa 0.00 in0.03 mm --
17:53 17:53 Cloudy With Light Freezing Drizzle Cloudy With Light Freezing Drizzle 22°F-6°C 20°F-7°C 92% NNE 16 mphNNE 26 kph 3.0 miles4.8 km 29.85 in1011 hPa 0.01 in6.45 mm --
17:19 17:19 Cloudy With Light Wintry Mix Cloudy With Light Wintry Mix 22°F-6°C 20°F-7°C 92% NNE 16 mphNNE 26 kph 3.0 miles4.8 km 29.85 in1011 hPa 0.01 in6.45 mm --
17:01 17:01 Cloudy With Light Snow Cloudy With Light Snow 22°F-6°C 20°F-7°C 92% NNE 17 mphNNE 28 kph 3.0 miles4.8 km 29.85 in1011 hPa 0.01 in6.45 mm --
16:53 16:53 Cloudy With Light Snow Cloudy With Light Snow 22°F-6°C 20°F-7°C 92% NNE 17 mphNNE 28 kph 2.0 miles3.2 km 29.85 in1011 hPa 0.02 in12.90 mm --
16:26 16:26 Cloudy With Light Snow Cloudy With Light Snow 23°F-5°C 20°F-7°C 88% NNE 15 mphNNE 24 kph 2.0 miles3.2 km 29.85 in1011 hPa 0.01 in6.45 mm --
16:20 16:20 Cloudy With Light Snow Cloudy With Light Snow 23°F-5°C 20°F-7°C 88% NNE 15 mphNNE 24 kph 3.0 miles4.8 km 29.85 in1011 hPa 0.01 in6.45 mm --
16:06 16:06 Cloudy With Light Wintry Mix Cloudy With Light Wintry Mix 23°F-5°C 20°F-7°C 88% NNE 15 mphNNE 24 kph 3.0 miles4.8 km 29.85 in1011 hPa 0.00 in0.03 mm --
15:53 15:53 Cloudy With Light Wintry Mix Cloudy With Light Wintry Mix 23°F-5°C 20°F-7°C 88% NE 17 mphNE 28 kph 3.0 miles4.8 km 29.85 in1011 hPa 0.01 in6.45 mm --
15:33 15:33 Cloudy With Light Wintry Mix Cloudy With Light Wintry Mix 23°F-5°C 20°F-7°C 88% NE 15 mphNE 24 kph 3.0 miles4.8 km 29.85 in1011 hPa 0.00 in0.03 mm --
15:29 15:29 Cloudy With Light Snow Cloudy With Light Snow 23°F-5°C 20°F-7°C 88% NNE 15 mphNNE 24 kph 2.0 miles3.2 km 29.85 in1011 hPa 0.00 in0.03 mm --
14:53 14:53 Cloudy With Light Snow Cloudy With Light Snow 22°F-6°C 19°F-7°C 89% NNE 17 mphNNE 28 kph 3.0 miles4.8 km 29.85 in1011 hPa 0.02 in12.90 mm --
14:27 14:27 Cloudy With Light Snow Cloudy With Light Snow 22°F-6°C 20°F-7°C 92% NNE 17 mphNNE 28 kph 5.0 miles8.0 km 29.85 in1011 hPa 0.01 in6.45 mm --
14:20 14:20 Cloudy With Light Snow Cloudy With Light Snow 22°F-6°C 20°F-7°C 92% NNE 17 mphNNE 28 kph 4.0 miles6.4 km 29.85 in1011 hPa 0.01 in6.45 mm --
14:05 14:05 Cloudy With Light Snow Cloudy With Light Snow 22°F-6°C 20°F-7°C 92% NNE 17 mphNNE 28 kph 2.0 miles3.2 km 29.85 in1011 hPa 0.01 in6.45 mm --
13:53 13:53 Cloudy With Light Snow Cloudy With Light Snow 22°F-6°C 20°F-7°C 92% NNE 16 mphNNE 26 kph 1.5 miles2.4 km 29.85 in1011 hPa 0.02 in12.90 mm --
13:16 13:16 Cloudy With Light Snow Cloudy With Light Snow 22°F-6°C 20°F-7°C 92% NNE 15 mphNNE 24 kph 1.8 miles2.8 km 29.88 in1012 hPa 0.01 in6.45 mm --
13:07 13:07 Cloudy With Light Snow Cloudy With Light Snow 22°F-6°C 20°F-7°C 92% NNE 15 mphNNE 24 kph 1.8 miles2.8 km 29.88 in1012 hPa 0.01 in6.45 mm --
13:01 13:01 Cloudy With Light Snow Cloudy With Light Snow 22°F-6°C 20°F-7°C 92% NNE 14 mphNNE 22 kph 1.2 miles2.0 km 29.88 in1012 hPa 0.01 in6.45 mm --
12:53 12:53 Mostly Cloudy With Scattered Snow Showers Mostly Cloudy With Scattered Snow Showers 22°F-6°C 20°F-7°C 92% NNE 15 mphNNE 24 kph 1.0 miles1.6 km 29.88 in1012 hPa 0.02 in12.90 mm --
12:50 12:50 Mostly Cloudy With Scattered Snow Showers Mostly Cloudy With Scattered Snow Showers 21°F-6°C 19°F-7°C 93% NNE 13 mphNNE 20 kph 1.0 miles1.6 km 29.91 in1013 hPa 0.02 in12.90 mm --
12:44 12:44 Cloudy With Light Snow Cloudy With Light Snow 21°F-6°C 20°F-7°C 96% NNE 12 mphNNE 19 kph 1.5 miles2.4 km 29.91 in1013 hPa 0.02 in12.90 mm --
12:41 12:41 Cloudy With Light Snow Cloudy With Light Snow 21°F-6°C 19°F-7°C 92% N 12 mphN 19 kph 2.0 miles3.2 km 29.91 in1013 hPa 0.02 in12.90 mm --
12:32 12:32 Cloudy With Light Snow Cloudy With Light Snow 21°F-6°C 19°F-7°C 92% NNE 14 mphNNE 22 kph 2.0 miles3.2 km 29.91 in1013 hPa 0.02 in12.90 mm --
12:22 12:22 Cloudy With Light Snow Cloudy With Light Snow 21°F-6°C 19°F-7°C 92% NNE 14 mphNNE 22 kph 1.5 miles2.4 km 29.91 in1013 hPa 0.01 in6.45 mm --
12:11 12:11 Cloudy With Light Snow Cloudy With Light Snow 21°F-6°C 19°F-7°C 92% NNE 13 mphNNE 20 kph 1.2 miles2.0 km 29.91 in1013 hPa 0.00 in0.03 mm --
12:04 12:04 Cloudy With Light Snow Cloudy With Light Snow 21°F-6°C 19°F-7°C 92% NNE 12 mphNNE 19 kph 2.0 miles3.2 km 29.91 in1013 hPa 0.00 in0.03 mm --
11:53 11:53 Cloudy With Light Snow Cloudy With Light Snow 21°F-6°C 19°F-7°C 92% NNE 13 mphNNE 20 kph 3.0 miles4.8 km 29.91 in1013 hPa 0.02 in12.90 mm --
11:35 11:35 Cloudy With Light Snow Cloudy With Light Snow 21°F-6°C 19°F-7°C 92% NNE 14 mphNNE 22 kph 3.0 miles4.8 km 29.91 in1013 hPa 0.01 in6.45 mm --
10:53 10:53 Cloudy With Light Wintry Mix Cloudy With Light Wintry Mix 20°F-7°C 18°F-8°C 92% NNE 16 mphNNE 26 kph 6.0 miles9.7 km 29.91 in1013 hPa 0.00 in0.03 mm --
10:08 10:08 Cloudy With Light Wintry Mix Cloudy With Light Wintry Mix 19°F-7°C 17°F-8°C 92% NNE 20 mphNNE 31 kph 6.0 miles9.7 km 29.91 in1013 hPa 0.00 in0.03 mm --
09:53 09:53 Cloudy With Light Wintry Mix Cloudy With Light Wintry Mix 19°F-7°C 16°F-9°C 88% NNE 16 mphNNE 26 kph 6.0 miles9.7 km 29.91 in1013 hPa 0.01 in6.45 mm --
09:38 09:38 Cloudy With Light Wintry Mix Cloudy With Light Wintry Mix 19°F-7°C 16°F-9°C 88% NNE 17 mphNNE 28 kph 5.0 miles8.0 km 29.91 in1013 hPa 0.01 in6.45 mm --
09:25 09:25 Cloudy With Light Wintry Mix Cloudy With Light Wintry Mix 20°F-7°C 15°F-9°C 81% NNE 21 mphNNE 33 kph 6.0 miles9.7 km 29.91 in1013 hPa 0.00 in0.03 mm --
08:53 08:53 Cloudy Cloudy 20°F-7°C 15°F-9°C 81% N 20 mphN 31 kph 10.0 miles16.1 km 29.91 in1013 hPa 0.00 in0.00 mm --
08:43 08:43 Cloudy Cloudy 20°F-7°C 16°F-9°C 85% N 15 mphN 24 kph 10.0 miles16.1 km 29.91 in1013 hPa 0.00 in0.00 mm --
07:53 07:53 Cloudy Cloudy 20°F-7°C 16°F-9°C 85% N 18 mphN 30 kph 10.0 miles16.1 km 29.88 in1012 hPa 0.00 in0.00 mm --
06:53 06:53 Cloudy Cloudy 22°F-6°C 18°F-8°C 85% N 15 mphN 24 kph 10.0 miles16.1 km 29.85 in1011 hPa 0.00 in0.00 mm --
05:53 05:53 Cloudy Cloudy 23°F-5°C 19°F-7°C 85% NNE 21 mphNNE 33 kph 10.0 miles16.1 km 29.83 in1010 hPa 0.00 in0.00 mm --
05:01 05:01 Cloudy Cloudy 25°F-4°C 21°F-6°C 85% NNE 17 mphNNE 28 kph 10.0 miles16.1 km 29.8 in1009 hPa 0.00 in0.00 mm --
04:53 04:53 Cloudy Cloudy 25°F-4°C 22°F-6°C 88% NNE 15 mphNNE 24 kph 10.0 miles16.1 km 29.83 in1010 hPa 0.00 in0.00 mm --
03:53 03:53 Cloudy Cloudy 27°F-3°C 23°F-5°C 85% N 21 mphN 33 kph 10.0 miles16.1 km 29.8 in1009 hPa 0.00 in0.00 mm --
03:31 03:31 Cloudy Cloudy 27°F-3°C 23°F-5°C 85% NNE 14 mphNNE 22 kph 10.0 miles16.1 km 29.8 in1009 hPa 0.00 in0.00 mm --
02:53 02:53 Cloudy Cloudy 27°F-3°C 23°F-5°C 85% N 14 mphN 22 kph 10.0 miles16.1 km 29.77 in1008 hPa 0.00 in0.00 mm --
02:36 02:36 Mostly Cloudy Mostly Cloudy 27°F-3°C 23°F-5°C 85% N 12 mphN 19 kph 10.0 miles16.1 km 29.77 in1008 hPa 0.00 in0.00 mm --
01:53 01:53 Mostly Clear Mostly Clear 26°F-3°C 23°F-5°C 88% N 12 mphN 19 kph 10.0 miles16.1 km 29.77 in1008 hPa 0.00 in0.00 mm --
404 - Page Not Found

404

Error - Page Not Found


Please check the URL.

Otherwise, click here to be redirected to the homepage.